This demonstration page uses our WeatherBlox Daily Observations layout. Learn more.

Left ArrowRight Arrow

Hourly Observations for October 3, 2015

Temp ( °F °C ) Dew Point ( °F °C ) Humidity (%) Winds ( mph kmh ) Pressure ( in mb ) Visibility ( mi km ) Precip ( " mm )
12:53 am 00:53 Clear 75 23.9 36 2.2 24 24 undefined N/A 29.80 1009 10 16 0.00 0.00
2:53 am 02:53 Clear 72 22 36 2 27 27 NNW 9 15 29.77 1008 10 16 0.00 0.00
3:53 am 03:53 Clear 71 21.7 36 2.2 28 28 NNW 13 20 29.74 1007 10 16 0.00 0.00
4:53 am 04:53 Clear 72 22.2 35 1.7 26 26 NNW 12 19 29.71 1006 10 16 0.00 0.00
5:53 am 05:53 Clear 71 21.7 36 2.2 28 28 NW 6 9 29.69 1006 10 16 0.00 0.00
6:53 am 06:53 Clear 66 18.9 36 2.2 33 33 NNW 6 9 29.69 1005 10 16 0.00 0.00
7:53 am 07:53 Sunny 67 19.4 37 2.8 33 33 NW 3 6 29.68 1005 10 16 0.00 0.00
8:53 am 08:53 Sunny 74 23.3 37 2.8 26 26 N 10 17 29.65 1004 10 16 0.00 0.00
9:53 am 09:53 Sunny 77 25 36 2.2 23 23 NNW 8 13 29.59 1002 10 16 0.00 0.00
10:53 am 10:53 Sunny 79 26.1 36 2.2 21 21 N 20 31 29.58 1002 10 16 0.00 0.00
11:53 am 11:53 Sunny 80 26.7 36 2.2 20 20 N 14 22 29.55 1001 10 16 0.00 0.00
12:53 pm 12:53 Sunny 83 28.3 35 1.7 18 18 NNE 16 26 29.51 999 10 16 0.00 0.00
1:53 pm 13:53 Sunny 83 28.3 35 1.7 18 18 NE 20 31 29.49 999 10 16 0.00 0.00
2:53 pm 14:53 Sunny 82 27.8 34 1.1 18 18 N 28 44 29.48 998 10 16 0.00 0.00
3:53 pm 15:53 Sunny 82 27.8 28 -2.2 14 14 N 22 35 29.49 999 10 16 0.00 0.00
4:53 pm 16:53 Sunny 80 26.7 29 -1.7 15 15 N 21 33 29.47 998 10 16 0.00 0.00
5:53 pm 17:53 Sunny 79 26.1 28 -2.2 15 15 NNE 25 41 29.48 998 10 16 0.00 0.00
6:53 pm 18:53 Clear 76 24.4 29 -1.7 18 18 N 18 30 29.51 999 10 16 0.00 0.00
7:53 pm 19:53 Mostly Clear 75 23.9 34 1.1 22 22 NE 22 35 29.56 1001 10 16 0.00 0.00
8:53 pm 20:53 Mostly Cloudy 74 23.3 40 4.4 29 29 ENE 9 15 29.57 1001 10 16 0.00 0.00
9:53 pm 21:53 Partly Cloudy 73 22.8 37 2.8 27 27 Calm 29.59 1002 10 16 0.00 0.00
10:53 pm 22:53 Clear 74 23.3 33 0.6 22 22 N 14 22 29.58 1002 10 16 0.00 0.00
11:53 pm 23:53 Clear 73 22.8 35 1.7 25 25 undefined N/A 29.60 1002 10 16 0.00 0.00

Powered by AerisWeather